Tracking 18186 objects as of 29-March-2017
HD Live streaming from Space Station
objects crossing your sky now

COSMOS 2285

Track COSMOS 2285 now!
10-day predictions
COSMOS 2285 is classified as:


NORAD ID: 23189
Int'l Code: 1994-045A
Perigee: 979.4 km
Apogee: 1,017.8 km
Inclination: 74.0 °
Period: 104.9 minutes
Semi major axis: 7369 km
RCS: 1.9645 m2 (large)
Launch date: August 2, 1994
Source: Commonwealth of Independent States (former USSR) (CIS)
Launch site: PLESETSK MISSILE AND SPACE COMPLEX (PKMTR)
Your satellite tracking list
Your tracking list is empty





NASA's NSSDC Master Catalog

Two Line Element Set (TLE):
1 23189U 94045A   17087.95305899 -.00000019 +00000-0 +40626-5 0  9990
2 23189 074.0271 277.1594 0026011 286.3801 181.5771 13.72266156134466
Source of the keplerian elements: AFSPC